Time,TemperatureF,DewpointF,PressureIn,WindDirection,WindDirectionDegrees,WindSpeedMPH,WindSpeedGustMPH,Humidity,HourlyPrecipIn,Conditions,Clouds,dailyrainin,SoftwareType,DateUTC
2013-03-07 00:03:00,0.7,-8.9,29.00,North,-999,0.0,0.0,63,0.00,,,-99.99,FreeWX-Wi 1.01,2013-03-07 06:03:00,
2013-03-07 00:08:00,-0.6,-10.1,29.00,North,-999,0.0,0.0,63,0.00,,,-99.99,FreeWX-Wi 1.01,2013-03-07 06:08:00,
2013-03-07 00:13:00,-0.9,-10.5,29.00,North,-999,0.0,0.0,63,0.00,,,-99.99,FreeWX-Wi 1.01,2013-03-07 06:13:00,
2013-03-07 00:18:00,-0.9,-10.5,29.00,North,-999,0.0,0.0,63,0.00,,,-99.99,FreeWX-Wi 1.01,2013-03-07 06:18:00,
2013-03-07 00:23:00,-1.3,-10.8,29.00,North,-999,0.0,0.0,63,0.00,,,-99.99,FreeWX-Wi 1.01,2013-03-07 06:23:00,
2013-03-07 00:28:00,-1.1,-10.7,29.00,North,-999,0.0,0.0,63,0.00,,,-99.99,FreeWX-Wi 1.01,2013-03-07 06:28:00,
2013-03-07 00:33:00,-1.3,-10.8,29.00,North,-999,0.0,0.0,63,0.00,,,-99.99,FreeWX-Wi 1.01,2013-03-07 06:33:00,
2013-03-07 00:38:00,-1.3,-10.8,29.00,North,-999,0.0,0.0,63,0.00,,,-99.99,FreeWX-Wi 1.01,2013-03-07 06:38:00,
2013-03-07 00:43:00,-1.3,-10.8,29.00,North,-999,0.0,0.0,63,0.00,,,-99.99,FreeWX-Wi 1.01,2013-03-07 06:43:00,
2013-03-07 00:48:00,-1.5,-11.0,29.00,North,-999,0.0,0.0,63,0.00,,,-99.99,FreeWX-Wi 1.01,2013-03-07 06:48:00,
2013-03-07 00:53:00,-1.7,-11.2,29.00,North,-999,0.0,0.0,63,0.00,,,-99.99,FreeWX-Wi 1.01,2013-03-07 06:53:00,
2013-03-07 00:58:00,-1.8,-11.4,29.00,North,-999,0.0,0.0,63,0.00,,,-99.99,FreeWX-Wi 1.01,2013-03-07 06:58:00,
2013-03-07 01:04:00,-2.2,-11.7,29.00,North,-999,0.0,0.0,63,0.00,,,-99.99,FreeWX-Wi 1.01,2013-03-07 07:04:00,
2013-03-07 01:09:00,-2.6,-11.9,29.00,North,-999,0.0,0.0,63,0.00,,,-99.99,FreeWX-Wi 1.01,2013-03-07 07:09:00,
2013-03-07 01:14:00,-2.6,-11.9,29.00,North,-999,0.0,0.0,63,0.00,,,-99.99,FreeWX-Wi 1.01,2013-03-07 07:14:00,
2013-03-07 01:19:00,-2.4,-11.7,29.00,North,-999,0.0,0.0,63,0.00,,,-99.99,FreeWX-Wi 1.01,2013-03-07 07:19:00,
2013-03-07 01:24:00,-2.0,-11.6,29.00,North,-999,0.0,0.0,63,0.00,,,-99.99,FreeWX-Wi 1.01,2013-03-07 07:24:00,
2013-03-07 01:29:00,-1.8,-11.4,29.00,North,-999,0.0,0.0,63,0.00,,,-99.99,FreeWX-Wi 1.01,2013-03-07 07:29:00,
2013-03-07 01:34:00,-1.8,-11.4,29.00,North,-999,0.0,0.0,63,0.00,,,-99.99,FreeWX-Wi 1.01,2013-03-07 07:34:00,
2013-03-07 01:39:00,-1.7,-11.2,29.00,North,-999,0.0,0.0,63,0.00,,,-99.99,FreeWX-Wi 1.01,2013-03-07 07:39:00,
2013-03-07 01:50:00,-1.3,-10.8,29.00,North,-999,0.0,0.0,63,0.00,,,-99.99,FreeWX-Wi 1.01,2013-03-07 07:50:00,
2013-03-07 01:55:00,-0.8,-10.3,29.00,North,-999,0.0,0.0,63,0.00,,,-99.99,FreeWX-Wi 1.01,2013-03-07 07:55:00,
2013-03-07 02:00:00,-0.6,-10.1,29.00,North,-999,0.0,0.0,63,0.00,,,-99.99,FreeWX-Wi 1.01,2013-03-07 08:00:00,
2013-03-07 02:05:00,-0.4,-9.9,29.00,North,-999,0.0,0.0,63,0.00,,,-99.99,FreeWX-Wi 1.01,2013-03-07 08:05:00,
2013-03-07 02:10:00,-0.6,-10.1,29.00,North,-999,0.0,0.0,63,0.00,,,-99.99,FreeWX-Wi 1.01,2013-03-07 08:10:00,
2013-03-07 02:15:00,-0.2,-9.8,29.00,North,-999,0.0,0.0,63,0.00,,,-99.99,FreeWX-Wi 1.01,2013-03-07 08:15:00,
2013-03-07 02:20:00,0.3,-9.2,28.97,North,-999,0.0,0.0,63,0.00,,,-99.99,FreeWX-Wi 1.01,2013-03-07 08:20:00,
2013-03-07 02:25:00,0.1,-9.4,28.97,North,-999,0.0,0.0,63,0.00,,,-99.99,FreeWX-Wi 1.01,2013-03-07 08:25:00,
2013-03-07 02:31:00,-0.6,-10.1,28.97,North,-999,0.0,0.0,63,0.00,,,-99.99,FreeWX-Wi 1.01,2013-03-07 08:31:00,
2013-03-07 02:36:00,-1.3,-10.8,28.97,North,-999,0.0,0.0,63,0.00,,,-99.99,FreeWX-Wi 1.01,2013-03-07 08:36:00,
2013-03-07 02:41:00,-1.8,-11.4,28.97,North,-999,0.0,0.0,63,0.00,,,-99.99,FreeWX-Wi 1.01,2013-03-07 08:41:00,
2013-03-07 02:46:00,-2.0,-11.6,29.00,North,-999,0.0,0.0,63,0.00,,,-99.99,FreeWX-Wi 1.01,2013-03-07 08:46:00,
2013-03-07 02:51:00,-2.2,-11.7,29.00,North,-999,0.0,0.0,63,0.00,,,-99.99,FreeWX-Wi 1.01,2013-03-07 08:51:00,
2013-03-07 02:56:00,-2.2,-11.7,29.00,North,-999,0.0,0.0,63,0.00,,,-99.99,FreeWX-Wi 1.01,2013-03-07 08:56:00,
2013-03-07 03:02:00,-2.2,-11.7,29.00,North,-999,0.0,0.0,63,0.00,,,-99.99,FreeWX-Wi 1.01,2013-03-07 09:02:00,
2013-03-07 03:07:00,-2.6,-11.9,29.00,North,-999,0.0,0.0,63,0.00,,,-99.99,FreeWX-Wi 1.01,2013-03-07 09:07:00,
2013-03-07 03:12:00,-2.7,-12.1,29.00,North,-999,0.0,0.0,63,0.00,,,-99.99,FreeWX-Wi 1.01,2013-03-07 09:12:00,
2013-03-07 03:17:00,-2.6,-11.9,29.00,North,-999,0.0,0.0,63,0.00,,,-99.99,FreeWX-Wi 1.01,2013-03-07 09:17:00,
2013-03-07 03:22:00,-2.6,-11.9,29.00,North,-999,0.0,0.0,63,0.00,,,-99.99,FreeWX-Wi 1.01,2013-03-07 09:22:00,
2013-03-07 03:27:00,-2.6,-11.9,29.00,North,-999,0.0,0.0,63,0.00,,,-99.99,FreeWX-Wi 1.01,2013-03-07 09:27:00,
2013-03-07 03:32:00,-2.6,-11.9,28.97,North,-999,0.0,0.0,63,0.00,,,-99.99,FreeWX-Wi 1.01,2013-03-07 09:32:00,
2013-03-07 03:37:00,-2.2,-11.7,28.97,North,-999,0.0,0.0,63,0.00,,,-99.99,FreeWX-Wi 1.01,2013-03-07 09:37:00,
2013-03-07 03:42:00,-1.8,-11.4,28.97,North,-999,0.0,0.0,63,0.00,,,-99.99,FreeWX-Wi 1.01,2013-03-07 09:42:00,
2013-03-07 03:47:00,-1.5,-11.0,28.97,North,-999,0.0,0.0,63,0.00,,,-99.99,FreeWX-Wi 1.01,2013-03-07 09:47:00,
2013-03-07 03:52:00,-1.5,-11.0,28.97,North,-999,0.0,0.0,63,0.00,,,-99.99,FreeWX-Wi 1.01,2013-03-07 09:52:00,
2013-03-07 03:57:00,-1.8,-11.4,28.97,North,-999,0.0,0.0,63,0.00,,,-99.99,FreeWX-Wi 1.01,2013-03-07 09:57:00,
2013-03-07 04:02:00,-2.2,-11.7,28.97,North,-999,0.0,0.0,63,0.00,,,-99.99,FreeWX-Wi 1.01,2013-03-07 10:02:00,
2013-03-07 04:08:00,-2.0,-11.6,28.97,North,-999,0.0,0.0,63,0.00,,,-99.99,FreeWX-Wi 1.01,2013-03-07 10:08:00,
2013-03-07 04:13:00,-1.8,-11.4,28.97,North,-999,0.0,0.0,63,0.00,,,-99.99,FreeWX-Wi 1.01,2013-03-07 10:13:00,
2013-03-07 04:18:00,-1.8,-11.4,28.97,North,-999,0.0,0.0,63,0.00,,,-99.99,FreeWX-Wi 1.01,2013-03-07 10:18:00,
2013-03-07 04:23:00,-2.4,-11.7,28.97,North,-999,0.0,0.0,63,0.00,,,-99.99,FreeWX-Wi 1.01,2013-03-07 10:23:00,
2013-03-07 04:28:00,-2.6,-11.9,28.97,North,-999,0.0,0.0,63,0.00,,,-99.99,FreeWX-Wi 1.01,2013-03-07 10:28:00,
2013-03-07 04:33:00,-2.4,-11.7,28.97,North,-999,0.0,0.0,63,0.00,,,-99.99,FreeWX-Wi 1.01,2013-03-07 10:33:00,
2013-03-07 04:38:00,-2.0,-11.6,28.97,North,-999,0.0,0.0,63,0.00,,,-99.99,FreeWX-Wi 1.01,2013-03-07 10:38:00,
2013-03-07 04:43:00,-1.8,-11.4,28.97,North,-999,0.0,0.0,63,0.00,,,-99.99,FreeWX-Wi 1.01,2013-03-07 10:43:00,
2013-03-07 04:48:00,-1.5,-11.0,28.97,North,-999,0.0,0.0,63,0.00,,,-99.99,FreeWX-Wi 1.01,2013-03-07 10:48:00,
2013-03-07 04:53:00,-1.3,-10.8,28.97,North,-999,0.0,0.0,63,0.00,,,-99.99,FreeWX-Wi 1.01,2013-03-07 10:53:00,
2013-03-07 04:58:00,-1.3,-10.8,28.97,North,-999,0.0,0.0,63,0.00,,,-99.99,FreeWX-Wi 1.01,2013-03-07 10:58:00,
2013-03-07 05:03:00,-1.3,-10.8,28.97,North,-999,0.0,0.0,63,0.00,,,-99.99,FreeWX-Wi 1.01,2013-03-07 11:03:00,
2013-03-07 05:08:00,-1.3,-10.8,28.97,North,-999,0.0,0.0,63,0.00,,,-99.99,FreeWX-Wi 1.01,2013-03-07 11:08:00,
2013-03-07 05:14:00,-1.3,-10.8,28.97,North,-999,0.0,0.0,63,0.00,,,-99.99,FreeWX-Wi 1.01,2013-03-07 11:14:00,
2013-03-07 05:19:00,-1.8,-11.4,29.00,North,-999,0.0,0.0,63,0.00,,,-99.99,FreeWX-Wi 1.01,2013-03-07 11:19:00,
2013-03-07 05:24:00,-2.4,-11.7,29.00,North,-999,0.0,0.0,63,0.00,,,-99.99,FreeWX-Wi 1.01,2013-03-07 11:24:00,
2013-03-07 05:29:00,-2.6,-11.9,29.00,North,-999,0.0,0.0,63,0.00,,,-99.99,FreeWX-Wi 1.01,2013-03-07 11:29:00,
2013-03-07 05:34:00,-2.6,-11.9,29.00,North,-999,0.0,0.0,63,0.00,,,-99.99,FreeWX-Wi 1.01,2013-03-07 11:34:00,
2013-03-07 05:39:00,-2.6,-11.9,29.00,North,-999,0.0,0.0,63,0.00,,,-99.99,FreeWX-Wi 1.01,2013-03-07 11:39:00,
2013-03-07 05:44:00,-2.9,-12.3,29.00,North,-999,0.0,0.0,63,0.00,,,-99.99,FreeWX-Wi 1.01,2013-03-07 11:44:00,
2013-03-07 05:49:00,-2.9,-12.3,29.00,North,-999,0.0,0.0,63,0.00,,,-99.99,FreeWX-Wi 1.01,2013-03-07 11:49:00,
2013-03-07 06:00:00,-2.2,-11.7,29.00,North,-999,0.0,0.0,63,0.00,,,-99.99,FreeWX-Wi 1.01,2013-03-07 12:00:00,
2013-03-07 06:05:00,-2.2,-11.7,29.00,North,-999,0.0,0.0,63,0.00,,,-99.99,FreeWX-Wi 1.01,2013-03-07 12:05:00,
2013-03-07 06:10:00,-2.0,-11.6,29.00,North,-999,0.0,0.0,63,0.00,,,-99.99,FreeWX-Wi 1.01,2013-03-07 12:10:00,
2013-03-07 06:15:00,-1.8,-11.4,29.00,North,-999,0.0,0.0,63,0.00,,,-99.99,FreeWX-Wi 1.01,2013-03-07 12:15:00,
2013-03-07 06:20:00,-1.5,-11.0,29.00,North,-999,0.0,0.0,63,0.00,,,-99.99,FreeWX-Wi 1.01,2013-03-07 12:20:00,
2013-03-07 06:25:00,-1.8,-11.4,29.00,North,-999,0.0,0.0,63,0.00,,,-99.99,FreeWX-Wi 1.01,2013-03-07 12:25:00,
2013-03-07 06:30:00,-1.8,-11.4,29.00,North,-999,0.0,0.0,63,0.00,,,-99.99,FreeWX-Wi 1.01,2013-03-07 12:30:00,
2013-03-07 06:35:00,-1.8,-11.4,29.00,North,-999,0.0,0.0,63,0.00,,,-99.99,FreeWX-Wi 1.01,2013-03-07 12:35:00,
2013-03-07 06:40:00,-1.8,-11.4,29.00,North,-999,0.0,0.0,63,0.00,,,-99.99,FreeWX-Wi 1.01,2013-03-07 12:40:00,
2013-03-07 06:45:00,-2.0,-11.6,29.00,North,-999,0.0,0.0,63,0.00,,,-99.99,FreeWX-Wi 1.01,2013-03-07 12:45:00,
2013-03-07 06:50:00,-2.2,-11.7,29.00,North,-999,0.0,0.0,63,0.00,,,-99.99,FreeWX-Wi 1.01,2013-03-07 12:50:00,
2013-03-07 06:56:00,-1.8,-11.4,29.00,North,-999,0.0,0.0,63,0.00,,,-99.99,FreeWX-Wi 1.01,2013-03-07 12:56:00,
2013-03-07 07:01:00,-1.7,-11.2,29.00,North,-999,0.0,0.0,63,0.00,,,-99.99,FreeWX-Wi 1.01,2013-03-07 13:01:00,
2013-03-07 07:06:00,-1.5,-11.0,29.00,North,-999,0.0,0.0,63,0.00,,,-99.99,FreeWX-Wi 1.01,2013-03-07 13:06:00,
2013-03-07 07:11:00,-1.3,-10.8,29.00,North,-999,0.0,0.0,63,0.00,,,-99.99,FreeWX-Wi 1.01,2013-03-07 13:11:00,
2013-03-07 07:16:00,-0.9,-10.5,29.00,North,-999,0.0,0.0,63,0.00,,,-99.99,FreeWX-Wi 1.01,2013-03-07 13:16:00,
2013-03-07 07:21:00,-0.6,-10.1,29.00,North,-999,0.0,0.0,63,0.00,,,-99.99,FreeWX-Wi 1.01,2013-03-07 13:21:00,
2013-03-07 07:26:00,-0.4,-9.9,29.00,North,-999,0.0,0.0,63,0.00,,,-99.99,FreeWX-Wi 1.01,2013-03-07 13:26:00,
2013-03-07 07:31:00,-0.2,-9.8,29.00,North,-999,0.0,0.0,63,0.00,,,-99.99,FreeWX-Wi 1.01,2013-03-07 13:31:00,
2013-03-07 07:36:00,0.3,-9.2,29.00,North,-999,0.0,0.0,63,0.00,,,-99.99,FreeWX-Wi 1.01,2013-03-07 13:36:00,
2013-03-07 07:41:00,0.7,-8.9,29.00,North,-999,0.0,0.0,63,0.00,,,-99.99,FreeWX-Wi 1.01,2013-03-07 13:41:00,
2013-03-07 07:46:00,1.0,-8.5,29.00,North,-999,0.0,0.0,63,0.00,,,-99.99,FreeWX-Wi 1.01,2013-03-07 13:46:00,
2013-03-07 07:51:00,1.8,-8.0,29.00,North,-999,0.0,0.0,63,0.00,,,-99.99,FreeWX-Wi 1.01,2013-03-07 13:51:00,
2013-03-07 07:56:00,2.7,-7.1,29.00,North,-999,0.0,0.0,63,0.00,,,-99.99,FreeWX-Wi 1.01,2013-03-07 13:56:00,
2013-03-07 08:02:00,3.2,-6.5,29.00,North,-999,0.0,0.0,63,0.00,,,-99.99,FreeWX-Wi 1.01,2013-03-07 14:02:00,
2013-03-07 08:07:00,4.1,-5.6,29.00,North,-999,0.0,0.0,63,0.00,,,-99.99,FreeWX-Wi 1.01,2013-03-07 14:07:00,
2013-03-07 08:12:00,4.8,-4.9,29.00,North,-999,0.0,0.0,63,0.00,,,-99.99,FreeWX-Wi 1.01,2013-03-07 14:12:00,
2013-03-07 08:17:00,5.9,-4.0,29.00,North,-999,0.0,0.0,63,0.00,,,-99.99,FreeWX-Wi 1.01,2013-03-07 14:17:00,
2013-03-07 08:22:00,6.8,-3.1,29.00,North,-999,0.0,0.0,63,0.00,,,-99.99,FreeWX-Wi 1.01,2013-03-07 14:22:00,
2013-03-07 08:27:00,7.9,-2.0,29.00,North,-999,0.0,0.0,63,0.00,,,-99.99,FreeWX-Wi 1.01,2013-03-07 14:27:00,
2013-03-07 08:32:00,8.4,-1.5,29.00,North,-999,0.0,0.0,63,0.00,,,-99.99,FreeWX-Wi 1.01,2013-03-07 14:32:00,
2013-03-07 08:37:00,9.3,-0.8,29.00,North,-999,0.0,0.0,63,0.00,,,-99.99,FreeWX-Wi 1.01,2013-03-07 14:37:00,
2013-03-07 08:42:00,9.1,-0.9,29.00,North,-999,0.0,0.0,63,0.00,,,-99.99,FreeWX-Wi 1.01,2013-03-07 14:42:00,
2013-03-07 08:47:00,10.0,0.0,29.00,North,-999,0.0,0.0,63,0.00,,,-99.99,FreeWX-Wi 1.01,2013-03-07 14:47:00,
2013-03-07 08:52:00,9.9,-0.2,29.00,North,-999,0.0,0.0,63,0.00,,,-99.99,FreeWX-Wi 1.01,2013-03-07 14:52:00,
2013-03-07 08:57:00,10.2,0.1,29.00,North,-999,0.0,0.0,63,0.00,,,-99.99,FreeWX-Wi 1.01,2013-03-07 14:57:00,
2013-03-07 09:03:00,11.1,1.0,29.00,North,-999,0.0,0.0,63,0.00,,,-99.99,FreeWX-Wi 1.01,2013-03-07 15:03:00,
2013-03-07 09:08:00,11.8,1.8,29.00,North,-999,0.0,0.0,63,0.00,,,-99.99,FreeWX-Wi 1.01,2013-03-07 15:08:00,
2013-03-07 09:13:00,12.4,2.3,29.00,North,-999,0.0,0.0,63,0.00,,,-99.99,FreeWX-Wi 1.01,2013-03-07 15:13:00,
2013-03-07 09:18:00,13.8,3.6,29.00,North,-999,0.0,0.0,63,0.00,,,-99.99,FreeWX-Wi 1.01,2013-03-07 15:18:00,
2013-03-07 09:23:00,15.1,9.0,29.00,North,-999,0.0,0.0,76,0.00,,,-99.99,FreeWX-Wi 1.01,2013-03-07 15:23:00,
2013-03-07 09:28:00,15.3,9.1,29.00,North,-999,0.0,2.7,76,0.00,,,-99.99,FreeWX-Wi 1.01,2013-03-07 15:28:00,
2013-03-07 09:33:00,15.4,8.6,29.00,North,-999,0.0,4.9,74,0.00,,,-99.99,FreeWX-Wi 1.01,2013-03-07 15:33:00,
2013-03-07 09:38:00,15.4,7.7,29.00,SE,146,1.0,4.9,71,0.00,,,-99.99,FreeWX-Wi 1.01,2013-03-07 15:38:00,
2013-03-07 09:43:00,14.9,5.5,29.00,SE,141,2.0,4.0,66,0.00,,,-99.99,FreeWX-Wi 1.01,2013-03-07 15:43:00,
2013-03-07 09:48:00,14.9,6.3,29.00,SE,139,2.0,4.0,68,0.00,,,-99.99,FreeWX-Wi 1.01,2013-03-07 15:48:00,
2013-03-07 09:53:00,15.1,5.7,29.00,SE,133,3.0,4.0,66,0.00,,,-99.99,FreeWX-Wi 1.01,2013-03-07 15:53:00,
2013-03-07 09:58:00,15.4,5.7,29.00,SE,130,3.0,4.0,65,0.00,,,-99.99,FreeWX-Wi 1.01,2013-03-07 15:58:00,
2013-03-07 10:03:00,16.5,5.7,29.00,SE,127,3.0,4.9,62,0.00,,,-99.99,FreeWX-Wi 1.01,2013-03-07 16:03:00,
2013-03-07 10:09:00,16.2,5.5,29.00,SE,126,3.0,4.9,62,0.00,,,-99.99,FreeWX-Wi 1.01,2013-03-07 16:09:00,
2013-03-07 10:14:00,16.7,5.9,29.00,SE,127,4.0,5.4,62,0.00,,,-99.99,FreeWX-Wi 1.01,2013-03-07 16:14:00,
2013-03-07 10:19:00,18.1,7.0,29.00,SE,129,4.0,5.8,61,0.00,,,-99.99,FreeWX-Wi 1.01,2013-03-07 16:19:00,
2013-03-07 10:24:00,19.2,7.0,29.00,SE,130,4.0,5.8,58,0.00,,,-99.99,FreeWX-Wi 1.01,2013-03-07 16:24:00,
2013-03-07 10:29:00,20.3,7.2,29.00,SE,130,4.0,6.3,56,0.00,,,-99.99,FreeWX-Wi 1.01,2013-03-07 16:29:00,
2013-03-07 10:34:00,20.3,6.8,29.00,SE,131,5.0,7.2,55,0.00,,,-99.99,FreeWX-Wi 1.01,2013-03-07 16:34:00,
2013-03-07 10:39:00,19.6,5.7,29.00,SE,131,5.0,8.3,54,0.00,,,-99.99,FreeWX-Wi 1.01,2013-03-07 16:39:00,
2013-03-07 10:44:00,21.0,7.3,29.00,SE,131,5.0,7.6,55,0.00,,,-99.99,FreeWX-Wi 1.01,2013-03-07 16:44:00,
2013-03-07 10:49:00,21.4,7.0,29.00,SE,130,6.0,8.3,53,0.00,,,-99.99,FreeWX-Wi 1.01,2013-03-07 16:49:00,
2013-03-07 10:54:00,21.2,7.5,29.00,SE,128,6.0,8.7,55,0.00,,,-99.99,FreeWX-Wi 1.01,2013-03-07 16:54:00,
2013-03-07 10:59:00,21.0,7.3,29.00,SE,127,7.0,10.1,55,0.00,,,-99.99,FreeWX-Wi 1.01,2013-03-07 16:59:00,
2013-03-07 11:04:00,21.9,7.9,29.00,SE,127,7.0,11.0,54,0.00,,,-99.99,FreeWX-Wi 1.01,2013-03-07 17:04:00,
2013-03-07 11:09:00,22.1,8.4,29.00,SE,127,8.0,11.0,55,0.00,,,-99.99,FreeWX-Wi 1.01,2013-03-07 17:09:00,
2013-03-07 11:14:00,23.7,9.1,29.00,SE,127,8.0,10.1,53,0.00,,,-99.99,FreeWX-Wi 1.01,2013-03-07 17:14:00,
2013-03-07 11:20:00,24.4,9.9,29.03,SE,128,8.0,11.0,53,0.00,,,-99.99,FreeWX-Wi 1.01,2013-03-07 17:20:00,
2013-03-07 11:25:00,26.4,9.9,29.03,SE,133,8.0,12.8,49,0.00,,,-99.99,FreeWX-Wi 1.01,2013-03-07 17:25:00,
2013-03-07 11:30:00,27.1,9.1,29.03,SE,139,8.0,11.0,46,0.00,,,-99.99,FreeWX-Wi 1.01,2013-03-07 17:30:00,
2013-03-07 11:35:00,27.3,9.3,29.03,SE,143,9.0,11.0,46,0.00,,,-99.99,FreeWX-Wi 1.01,2013-03-07 17:35:00,
2013-03-07 11:40:00,27.5,9.5,29.03,SE,145,9.0,11.9,46,0.00,,,-99.99,FreeWX-Wi 1.01,2013-03-07 17:40:00,
2013-03-07 11:45:00,26.1,9.1,29.03,SE,146,9.0,12.3,48,0.00,,,-99.99,FreeWX-Wi 1.01,2013-03-07 17:45:00,
2013-03-07 11:50:00,27.7,10.6,29.00,SSE,147,9.0,12.8,48,0.00,,,-99.99,FreeWX-Wi 1.01,2013-03-07 17:50:00,
2013-03-07 11:55:00,29.3,11.1,29.00,SE,144,9.0,11.0,46,0.00,,,-99.99,FreeWX-Wi 1.01,2013-03-07 17:55:00,
2013-03-07 12:00:00,26.1,10.4,29.00,SE,138,9.0,11.0,51,0.00,,,-99.99,FreeWX-Wi 1.01,2013-03-07 18:00:00,
2013-03-07 12:05:00,25.9,10.2,29.00,SE,136,9.0,11.0,51,0.00,,,-99.99,FreeWX-Wi 1.01,2013-03-07 18:05:00,
2013-03-07 12:10:00,28.0,10.4,29.00,SE,136,9.0,12.8,47,0.00,,,-99.99,FreeWX-Wi 1.01,2013-03-07 18:10:00,
2013-03-07 12:16:00,29.7,10.9,29.03,SE,138,9.0,10.5,45,0.00,,,-99.99,FreeWX-Wi 1.01,2013-03-07 18:16:00,
2013-03-07 12:21:00,30.4,10.6,29.03,SE,138,9.0,12.8,43,0.00,,,-99.99,FreeWX-Wi 1.01,2013-03-07 18:21:00,
2013-03-07 12:26:00,30.6,11.3,29.03,SE,142,9.0,10.5,44,0.00,,,-99.99,FreeWX-Wi 1.01,2013-03-07 18:26:00,
2013-03-07 12:31:00,30.7,10.9,29.00,SSE,147,9.0,10.5,43,0.00,,,-99.99,FreeWX-Wi 1.01,2013-03-07 18:31:00,
2013-03-07 12:36:00,30.4,10.0,29.00,SSE,151,9.0,11.0,42,0.00,,,-99.99,FreeWX-Wi 1.01,2013-03-07 18:36:00,
2013-03-07 12:41:00,30.0,10.2,29.00,SSE,153,9.0,12.3,43,0.00,,,-99.99,FreeWX-Wi 1.01,2013-03-07 18:41:00,
2013-03-07 12:46:00,29.5,10.8,29.00,SSE,154,9.0,12.8,45,0.00,,,-99.99,FreeWX-Wi 1.01,2013-03-07 18:46:00,
2013-03-07 12:51:00,30.2,11.5,29.00,SSE,156,9.0,13.2,45,0.00,,,-99.99,FreeWX-Wi 1.01,2013-03-07 18:51:00,
2013-03-07 12:56:00,30.9,11.1,29.00,SSE,156,9.0,11.0,43,0.00,,,-99.99,FreeWX-Wi 1.01,2013-03-07 18:56:00,
2013-03-07 13:01:00,31.3,11.5,29.00,SSE,155,9.0,13.2,43,0.00,,,-99.99,FreeWX-Wi 1.01,2013-03-07 19:01:00,
2013-03-07 13:06:00,30.7,12.0,29.00,SSE,153,9.0,14.5,45,0.00,,,-99.99,FreeWX-Wi 1.01,2013-03-07 19:06:00,
2013-03-07 13:11:00,31.6,11.7,29.00,SSE,152,9.0,11.0,43,0.00,,,-99.99,FreeWX-Wi 1.01,2013-03-07 19:11:00,
2013-03-07 13:17:00,31.6,11.1,29.00,SSE,152,9.0,11.4,42,0.00,,,-99.99,FreeWX-Wi 1.01,2013-03-07 19:17:00,
2013-03-07 13:27:00,27.9,11.1,29.00,SSE,147,9.0,12.8,49,0.00,,,-99.99,FreeWX-Wi 1.01,2013-03-07 19:27:00,
2013-03-07 13:32:00,27.7,11.5,29.00,SE,143,9.0,11.0,50,0.00,,,-99.99,FreeWX-Wi 1.01,2013-03-07 19:32:00,
2013-03-07 13:37:00,28.6,11.8,29.00,SE,140,9.0,10.5,49,0.00,,,-99.99,FreeWX-Wi 1.01,2013-03-07 19:37:00,
2013-03-07 13:42:00,29.7,11.8,29.00,SE,136,9.0,10.1,47,0.00,,,-99.99,FreeWX-Wi 1.01,2013-03-07 19:42:00,
2013-03-07 13:47:00,29.5,12.7,28.97,SE,132,8.0,10.1,49,0.00,,,-99.99,FreeWX-Wi 1.01,2013-03-07 19:47:00,
2013-03-07 13:52:00,31.1,11.8,28.97,SE,132,8.0,10.1,44,0.00,,,-99.99,FreeWX-Wi 1.01,2013-03-07 19:52:00,
2013-03-07 13:58:00,31.5,12.6,28.97,SE,131,8.0,9.2,45,0.00,,,-99.99,FreeWX-Wi 1.01,2013-03-07 19:58:00,
2013-03-07 14:08:00,29.5,12.7,28.97,SE,130,8.0,11.0,49,0.00,,,-99.99,FreeWX-Wi 1.01,2013-03-07 20:08:00,
2013-03-07 14:13:00,31.1,13.3,28.97,SE,130,8.0,11.0,47,0.00,,,-99.99,FreeWX-Wi 1.01,2013-03-07 20:13:00,
2013-03-07 14:18:00,31.1,13.3,28.97,SE,129,8.0,8.7,47,0.00,,,-99.99,FreeWX-Wi 1.01,2013-03-07 20:18:00,
2013-03-07 14:23:00,32.0,12.6,28.97,SE,130,8.0,11.0,44,0.00,,,-99.99,FreeWX-Wi 1.01,2013-03-07 20:23:00,
2013-03-07 14:29:00,32.2,12.7,28.97,SE,130,8.0,8.7,44,0.00,,,-99.99,FreeWX-Wi 1.01,2013-03-07 20:29:00,
2013-03-07 14:34:00,32.7,13.3,28.97,SE,131,8.0,10.5,44,0.00,,,-99.99,FreeWX-Wi 1.01,2013-03-07 20:34:00,
2013-03-07 14:39:00,31.8,12.9,28.97,SE,131,8.0,10.1,45,0.00,,,-99.99,FreeWX-Wi 1.01,2013-03-07 20:39:00,
2013-03-07 14:44:00,30.9,12.6,28.97,SE,132,8.0,11.0,46,0.00,,,-99.99,FreeWX-Wi 1.01,2013-03-07 20:44:00,
2013-03-07 14:49:00,30.7,12.4,28.97,SE,133,8.0,10.5,46,0.00,,,-99.99,FreeWX-Wi 1.01,2013-03-07 20:49:00,
2013-03-07 14:54:00,30.2,12.4,28.97,SE,133,8.0,12.3,47,0.00,,,-99.99,FreeWX-Wi 1.01,2013-03-07 20:54:00,
2013-03-07 14:59:00,29.8,13.5,28.97,SE,134,8.0,11.0,50,0.00,,,-99.99,FreeWX-Wi 1.01,2013-03-07 20:59:00,
2013-03-07 15:04:00,29.5,13.6,28.97,SE,133,9.0,13.2,51,0.00,,,-99.99,FreeWX-Wi 1.01,2013-03-07 21:04:00,
2013-03-07 15:09:00,28.8,13.5,28.97,SE,131,9.0,14.1,52,0.00,,,-99.99,FreeWX-Wi 1.01,2013-03-07 21:09:00,
2013-03-07 15:14:00,28.2,13.8,28.97,SE,129,10.0,14.5,54,0.00,,,-99.99,FreeWX-Wi 1.01,2013-03-07 21:14:00,
2013-03-07 15:19:00,28.2,13.3,28.97,ESE,123,10.0,13.6,53,0.00,,,-99.99,FreeWX-Wi 1.01,2013-03-07 21:19:00,
2013-03-07 15:24:00,27.9,12.9,28.97,ESE,119,11.0,15.4,53,0.00,,,-99.99,FreeWX-Wi 1.01,2013-03-07 21:24:00,
2013-03-07 15:30:00,27.9,13.5,28.97,ESE,117,11.0,14.5,54,0.00,,,-99.99,FreeWX-Wi 1.01,2013-03-07 21:30:00,
2013-03-07 15:35:00,27.9,13.8,28.97,ESE,116,11.0,13.2,55,0.00,,,-99.99,FreeWX-Wi 1.01,2013-03-07 21:35:00,
2013-03-07 15:40:00,27.3,13.3,28.97,ESE,115,11.0,15.4,55,0.00,,,-99.99,FreeWX-Wi 1.01,2013-03-07 21:40:00,
2013-03-07 15:45:00,27.3,13.6,28.97,ESE,115,11.0,13.2,56,0.00,,,-99.99,FreeWX-Wi 1.01,2013-03-07 21:45:00,
2013-03-07 15:50:00,27.5,13.1,28.97,ESE,118,11.0,15.4,54,0.00,,,-99.99,FreeWX-Wi 1.01,2013-03-07 21:50:00,
2013-03-07 15:55:00,27.3,13.3,28.97,ESE,119,12.0,15.0,55,0.00,,,-99.99,FreeWX-Wi 1.01,2013-03-07 21:55:00,
2013-03-07 16:00:00,27.3,13.6,28.97,ESE,118,11.0,12.3,56,0.00,,,-99.99,FreeWX-Wi 1.01,2013-03-07 22:00:00,
2013-03-07 16:05:00,27.1,13.6,28.97,ESE,117,11.0,13.2,56,0.00,,,-99.99,FreeWX-Wi 1.01,2013-03-07 22:05:00,
2013-03-07 16:10:00,27.1,13.6,28.97,ESE,116,11.0,13.2,56,0.00,,,-99.99,FreeWX-Wi 1.01,2013-03-07 22:10:00,
2013-03-07 16:15:00,27.3,13.6,28.97,ESE,115,11.0,14.1,56,0.00,,,-99.99,FreeWX-Wi 1.01,2013-03-07 22:15:00,
2013-03-07 16:20:00,27.3,13.6,28.97,ESE,115,11.0,13.2,56,0.00,,,-99.99,FreeWX-Wi 1.01,2013-03-07 22:20:00,
2013-03-07 16:25:00,27.7,13.6,28.97,ESE,116,11.0,13.2,55,0.00,,,-99.99,FreeWX-Wi 1.01,2013-03-07 22:25:00,
2013-03-07 16:30:00,27.3,13.3,28.97,ESE,117,11.0,13.6,55,0.00,,,-99.99,FreeWX-Wi 1.01,2013-03-07 22:30:00,
2013-03-07 16:35:00,27.1,13.6,28.97,ESE,118,11.0,13.2,56,0.00,,,-99.99,FreeWX-Wi 1.01,2013-03-07 22:35:00,
2013-03-07 16:40:00,27.0,13.5,28.97,ESE,119,11.0,12.8,56,0.00,,,-99.99,FreeWX-Wi 1.01,2013-03-07 22:40:00,
2013-03-07 16:46:00,27.0,13.5,28.97,ESE,118,10.0,13.2,56,0.00,,,-99.99,FreeWX-Wi 1.01,2013-03-07 22:46:00,
2013-03-07 16:51:00,26.8,13.6,28.97,ESE,117,10.0,12.8,57,0.00,,,-99.99,FreeWX-Wi 1.01,2013-03-07 22:51:00,
2013-03-07 16:56:00,26.6,13.5,28.97,ESE,116,10.0,12.8,57,0.00,,,-99.99,FreeWX-Wi 1.01,2013-03-07 22:56:00,
2013-03-07 17:01:00,26.1,13.3,28.97,ESE,116,10.0,15.0,58,0.00,,,-99.99,FreeWX-Wi 1.01,2013-03-07 23:01:00,
2013-03-07 17:06:00,25.9,13.6,28.97,ESE,115,10.0,14.1,59,0.00,,,-99.99,FreeWX-Wi 1.01,2013-03-07 23:06:00,
2013-03-07 17:11:00,25.5,13.3,28.97,ESE,116,11.0,16.3,59,0.00,,,-99.99,FreeWX-Wi 1.01,2013-03-07 23:11:00,
2013-03-07 17:16:00,25.2,12.9,28.97,ESE,116,11.0,15.0,59,0.00,,,-99.99,FreeWX-Wi 1.01,2013-03-07 23:16:00,
2013-03-07 17:21:00,25.0,13.1,28.97,ESE,116,12.0,15.4,60,0.00,,,-99.99,FreeWX-Wi 1.01,2013-03-07 23:21:00,
2013-03-07 17:26:00,24.8,12.9,28.97,ESE,116,12.0,14.1,60,0.00,,,-99.99,FreeWX-Wi 1.01,2013-03-07 23:26:00,
2013-03-07 17:31:00,24.6,13.5,28.97,ESE,115,12.0,14.5,62,0.00,,,-99.99,FreeWX-Wi 1.01,2013-03-07 23:31:00,
2013-03-07 17:36:00,24.4,13.6,28.97,ESE,115,12.0,12.3,63,0.00,,,-99.99,FreeWX-Wi 1.01,2013-03-07 23:36:00,
2013-03-07 17:41:00,24.3,13.5,28.97,ESE,115,11.0,13.2,63,0.00,,,-99.99,FreeWX-Wi 1.01,2013-03-07 23:41:00,
2013-03-07 17:46:00,23.9,13.5,28.97,ESE,115,11.0,13.2,64,0.00,,,-99.99,FreeWX-Wi 1.01,2013-03-07 23:46:00,
2013-03-07 17:51:00,23.9,13.5,28.97,ESE,115,11.0,14.1,64,0.00,,,-99.99,FreeWX-Wi 1.01,2013-03-07 23:51:00,
2013-03-07 18:02:00,23.5,13.5,28.94,ESE,116,11.0,15.4,65,0.00,,,-99.99,FreeWX-Wi 1.01,2013-03-08 00:02:00,
2013-03-07 18:07:00,23.4,13.3,28.94,ESE,118,12.0,15.4,65,0.00,,,-99.99,FreeWX-Wi 1.01,2013-03-08 00:07:00,
2013-03-07 18:12:00,23.2,12.9,28.94,ESE,119,12.0,13.6,64,0.00,,,-99.99,FreeWX-Wi 1.01,2013-03-08 00:12:00,
2013-03-07 18:17:00,23.0,12.7,28.97,ESE,122,11.0,13.2,64,0.00,,,-99.99,FreeWX-Wi 1.01,2013-03-08 00:17:00,
2013-03-07 18:22:00,22.6,12.7,28.97,ESE,122,11.0,13.2,65,0.00,,,-99.99,FreeWX-Wi 1.01,2013-03-08 00:22:00,
2013-03-07 18:27:00,22.6,13.1,28.97,ESE,122,10.0,11.9,66,0.00,,,-99.99,FreeWX-Wi 1.01,2013-03-08 00:27:00,
2013-03-07 18:32:00,22.5,12.9,28.97,ESE,122,10.0,11.0,66,0.00,,,-99.99,FreeWX-Wi 1.01,2013-03-08 00:32:00,
2013-03-07 18:37:00,22.5,12.9,28.97,ESE,122,10.0,12.8,66,0.00,,,-99.99,FreeWX-Wi 1.01,2013-03-08 00:37:00,
2013-03-07 18:43:00,22.3,12.7,28.97,ESE,121,10.0,12.3,66,0.00,,,-99.99,FreeWX-Wi 1.01,2013-03-08 00:43:00,
2013-03-07 18:48:00,22.1,12.6,28.97,ESE,120,9.0,11.0,66,0.00,,,-99.99,FreeWX-Wi 1.01,2013-03-08 00:48:00,
2013-03-07 18:53:00,21.9,12.7,28.97,ESE,120,9.0,9.2,67,0.00,,,-99.99,FreeWX-Wi 1.01,2013-03-08 00:53:00,
2013-03-07 18:58:00,21.7,12.6,28.97,ESE,120,9.0,11.0,67,0.00,,,-99.99,FreeWX-Wi 1.01,2013-03-08 00:58:00,
2013-03-07 19:03:00,21.7,12.6,28.97,ESE,119,9.0,10.1,67,0.00,,,-99.99,FreeWX-Wi 1.01,2013-03-08 01:03:00,
2013-03-07 19:08:00,21.6,12.7,28.97,ESE,119,8.0,10.1,68,0.00,,,-99.99,FreeWX-Wi 1.01,2013-03-08 01:08:00,
2013-03-07 19:13:00,21.4,12.2,28.97,ESE,119,8.0,9.6,67,0.00,,,-99.99,FreeWX-Wi 1.01,2013-03-08 01:13:00,
2013-03-07 19:18:00,21.2,12.6,28.97,ESE,119,8.0,10.1,69,0.00,,,-99.99,FreeWX-Wi 1.01,2013-03-08 01:18:00,
2013-03-07 19:29:00,21.0,12.2,28.97,ESE,122,8.0,11.0,68,0.00,,,-99.99,FreeWX-Wi 1.01,2013-03-08 01:29:00,
2013-03-07 19:34:00,20.5,11.7,28.97,ESE,123,8.0,10.5,68,0.00,,,-99.99,FreeWX-Wi 1.01,2013-03-08 01:34:00,
2013-03-07 19:39:00,20.3,12.4,28.97,SE,124,9.0,12.3,71,0.00,,,-99.99,FreeWX-Wi 1.01,2013-03-08 01:39:00,
2013-03-07 19:44:00,20.5,12.9,28.97,SE,125,9.0,12.8,72,0.00,,,-99.99,FreeWX-Wi 1.01,2013-03-08 01:44:00,
2013-03-07 19:49:00,20.5,12.9,28.97,SE,126,9.0,12.8,72,0.00,,,-99.99,FreeWX-Wi 1.01,2013-03-08 01:49:00,
2013-03-07 19:54:00,20.5,12.6,28.97,SE,126,10.0,12.8,71,0.00,,,-99.99,FreeWX-Wi 1.01,2013-03-08 01:54:00,
2013-03-07 19:59:00,20.3,12.7,28.97,SE,126,10.0,12.3,72,0.00,,,-99.99,FreeWX-Wi 1.01,2013-03-08 01:59:00,
2013-03-07 20:04:00,20.1,12.6,28.97,SE,125,10.0,11.0,72,0.00,,,-99.99,FreeWX-Wi 1.01,2013-03-08 02:04:00,
2013-03-07 20:10:00,19.9,12.4,28.97,SE,125,10.0,11.0,72,0.00,,,-99.99,FreeWX-Wi 1.01,2013-03-08 02:10:00,
2013-03-07 20:31:00,19.6,12.7,28.97,SE,125,10.0,12.8,74,0.00,,,-99.99,FreeWX-Wi 1.01,2013-03-08 02:31:00,
2013-03-07 20:36:00,19.4,12.6,28.97,SE,126,10.0,11.0,74,0.00,,,-99.99,FreeWX-Wi 1.01,2013-03-08 02:36:00,
2013-03-07 20:41:00,19.4,12.6,28.97,SE,126,10.0,11.0,74,0.00,,,-99.99,FreeWX-Wi 1.01,2013-03-08 02:41:00,
2013-03-07 20:46:00,19.6,12.9,28.97,SE,127,10.0,13.2,75,0.00,,,-99.99,FreeWX-Wi 1.01,2013-03-08 02:46:00,
2013-03-07 20:51:00,19.4,12.6,28.97,SE,128,10.0,13.2,74,0.00,,,-99.99,FreeWX-Wi 1.01,2013-03-08 02:51:00,
2013-03-07 20:56:00,19.4,12.7,28.97,SE,129,10.0,12.8,75,0.00,,,-99.99,FreeWX-Wi 1.01,2013-03-08 02:56:00,
2013-03-07 21:01:00,19.2,12.6,28.94,SE,130,10.0,12.8,75,0.00,,,-99.99,FreeWX-Wi 1.01,2013-03-08 03:01:00,
2013-03-07 21:06:00,19.0,12.2,28.94,SE,130,10.0,11.9,74,0.00,,,-99.99,FreeWX-Wi 1.01,2013-03-08 03:06:00,
2013-03-07 21:12:00,19.0,12.4,28.94,SE,130,10.0,12.3,75,0.00,,,-99.99,FreeWX-Wi 1.01,2013-03-08 03:12:00,
2013-03-07 21:17:00,19.4,13.1,28.97,SE,131,10.0,13.6,76,0.00,,,-99.99,FreeWX-Wi 1.01,2013-03-08 03:17:00,
2013-03-07 21:22:00,19.6,12.9,28.97,SE,131,11.0,14.1,75,0.00,,,-99.99,FreeWX-Wi 1.01,2013-03-08 03:22:00,
2013-03-07 21:32:00,19.6,12.9,28.97,SE,131,11.0,15.0,75,0.00,,,-99.99,FreeWX-Wi 1.01,2013-03-08 03:32:00,
2013-03-07 21:38:00,19.8,13.5,28.97,SE,132,12.0,15.9,76,0.00,,,-99.99,FreeWX-Wi 1.01,2013-03-08 03:38:00,
2013-03-07 21:43:00,20.3,14.0,28.97,SE,133,12.0,15.0,76,0.00,,,-99.99,FreeWX-Wi 1.01,2013-03-08 03:43:00,
2013-03-07 21:48:00,20.3,14.0,28.97,SE,134,12.0,15.4,76,0.00,,,-99.99,FreeWX-Wi 1.01,2013-03-08 03:48:00,
2013-03-07 21:53:00,20.5,14.2,28.97,SE,134,12.0,15.4,76,0.00,,,-99.99,FreeWX-Wi 1.01,2013-03-08 03:53:00,
2013-03-07 21:58:00,20.3,13.6,28.97,SE,136,12.0,15.0,75,0.00,,,-99.99,FreeWX-Wi 1.01,2013-03-08 03:58:00,
2013-03-07 22:03:00,20.3,14.0,28.97,SE,137,12.0,15.0,76,0.00,,,-99.99,FreeWX-Wi 1.01,2013-03-08 04:03:00,
2013-03-07 22:08:00,20.5,14.2,28.97,SE,138,12.0,16.3,76,0.00,,,-99.99,FreeWX-Wi 1.01,2013-03-08 04:08:00,
2013-03-07 22:13:00,20.5,13.8,28.97,SE,139,12.0,15.4,75,0.00,,,-99.99,FreeWX-Wi 1.01,2013-03-08 04:13:00,
2013-03-07 22:18:00,20.3,14.0,28.97,SE,141,12.0,14.1,76,0.00,,,-99.99,FreeWX-Wi 1.01,2013-03-08 04:18:00,
2013-03-07 22:23:00,20.1,13.8,28.97,SE,144,12.0,13.2,76,0.00,,,-99.99,FreeWX-Wi 1.01,2013-03-08 04:23:00,
2013-03-07 22:28:00,20.1,13.8,28.97,SE,146,11.0,13.2,76,0.00,,,-99.99,FreeWX-Wi 1.01,2013-03-08 04:28:00,
2013-03-07 22:34:00,20.1,13.8,28.97,SSE,149,11.0,13.2,76,0.00,,,-99.99,FreeWX-Wi 1.01,2013-03-08 04:34:00,
2013-03-07 22:39:00,20.1,13.8,28.97,SSE,150,11.0,15.0,76,0.00,,,-99.99,FreeWX-Wi 1.01,2013-03-08 04:39:00,
2013-03-07 22:44:00,20.1,14.0,28.97,SSE,150,11.0,15.0,77,0.00,,,-99.99,FreeWX-Wi 1.01,2013-03-08 04:44:00,
2013-03-07 22:49:00,20.1,14.0,28.97,SSE,150,11.0,15.4,77,0.00,,,-99.99,FreeWX-Wi 1.01,2013-03-08 04:49:00,
2013-03-07 22:54:00,20.1,14.0,28.97,SSE,150,12.0,15.4,77,0.00,,,-99.99,FreeWX-Wi 1.01,2013-03-08 04:54:00,
2013-03-07 22:59:00,20.1,14.0,28.97,SSE,149,12.0,15.0,77,0.00,,,-99.99,FreeWX-Wi 1.01,2013-03-08 04:59:00,
2013-03-07 23:04:00,20.1,14.4,28.97,SSE,148,12.0,15.0,78,0.00,,,-99.99,FreeWX-Wi 1.01,2013-03-08 05:04:00,
2013-03-07 23:09:00,20.1,14.4,28.97,SE,146,12.0,15.0,78,0.00,,,-99.99,FreeWX-Wi 1.01,2013-03-08 05:09:00,
2013-03-07 23:14:00,20.1,14.0,28.97,SE,145,12.0,14.5,77,0.00,,,-99.99,FreeWX-Wi 1.01,2013-03-08 05:14:00,
2013-03-07 23:19:00,19.9,14.0,28.97,SE,145,11.0,15.9,77,0.00,,,-99.99,FreeWX-Wi 1.01,2013-03-08 05:19:00,
2013-03-07 23:24:00,19.9,14.2,28.97,SE,145,11.0,13.2,78,0.00,,,-99.99,FreeWX-Wi 1.01,2013-03-08 05:24:00,
2013-03-07 23:29:00,19.9,14.2,28.97,SE,145,11.0,13.6,78,0.00,,,-99.99,FreeWX-Wi 1.01,2013-03-08 05:29:00,
2013-03-07 23:34:00,19.9,14.2,28.97,SE,145,11.0,14.5,78,0.00,,,-99.99,FreeWX-Wi 1.01,2013-03-08 05:34:00,
2013-03-07 23:39:00,19.9,14.5,28.97,SSE,147,11.0,15.9,79,0.00,,,-99.99,FreeWX-Wi 1.01,2013-03-08 05:39:00,
2013-03-07 23:44:00,19.9,14.2,28.97,SSE,148,11.0,16.3,78,0.00,,,-99.99,FreeWX-Wi 1.01,2013-03-08 05:44:00,
2013-03-07 23:50:00,19.8,14.0,28.97,SSE,148,12.0,15.4,78,0.00,,,-99.99,FreeWX-Wi 1.01,2013-03-08 05:50:00,
2013-03-07 23:55:00,19.8,14.4,28.97,SSE,148,12.0,13.2,79,0.00,,,-99.99,FreeWX-Wi 1.01,2013-03-08 05:55:00,